Skip to main content.
NOAA NWS Hourly Roundups by Site

NOAA NWS Hourly Roundups by Site

Regional Weather Roundup for Omaha, NE

To Select Another Site Choose from List

Select Site:  

000
ASUS43 KOAX 251710
RWRNE

WEATHER ROUNDUP FOR NEBRASKA
NATIONAL WEATHER SERVICE OMAHA NE
1200 PM CDT MON JUN 25 2018

NOTES: SATELLITE DATA IS BEING USED TO AUGMENT CLOUD COVER ABOVE
       12000 FEET.
       "FAIR" INDICATES FEW OR NO CLOUDS BELOW 12,000 FEET WITH NO
       SIGNIFICANT WEATHER AND/OR OBSTRUCTIONS TO VISIBILITY.


NEZ001>004-019>022-054>056-251800-
NEBRASKA PANHANDLE

CITY           SKY/WX    TMP DP  RH WIND       PRES   REMARKS
SCOTTSBLUFF    MOSUNNY   72  60  66 NW10      30.02F
ALLIANCE       PTSUNNY   71  57  61 N10       30.00F
CHADRON        MOSUNNY   72  56  57 VRB3      29.99F
GORDON         FAIR      70  56  62 NW8       29.98F
KIMBALL        SUNNY     69  52  54 NW14G20   30.07F
SIDNEY         PTSUNNY   69  55  60 N12       30.04F
$$

NEZ057>060-069>072-079>082-251800-
SOUTHWEST NEBRASKA

CITY           SKY/WX    TMP DP  RH WIND       PRES   REMARKS
NORTH PLATTE   LGT RAIN  61  61 100 W8        29.95F FOG
IMPERIAL       CLOUDY    61  58  90 SW6       30.00F
LEXINGTON      CLOUDY    68  59  73 NW9       29.92S
MCCOOK         CLOUDY    68  58  70 NW13      29.96S
OGALLALA       CLOUDY    65  59  81 NW9       29.99S
$$

NEZ005>010-023>029-035>040-094-251800-
NORTH CENTRAL NEBRASKA

CITY           SKY/WX    TMP DP  RH WIND       PRES   REMARKS
VALENTINE      LGT RAIN  65  63  93 N12       29.94S
AINSWORTH      LGT RAIN  59  56  90 N18G25    29.91F
BROKEN BOW     CLOUDY    64  59  83 W5        29.90F
O`NEILL        RAIN      68  66  94 SE6       29.91F
ORD            CLOUDY    63  60  90 CALM      29.87F
THEDFORD       RAIN      62  60  93 N12       29.93F
$$

NEZ041-046>049-061>064-073>077-083>087-251800-
SOUTH CENTRAL NEBRASKA

CITY           SKY/WX    TMP DP  RH WIND       PRES   REMARKS
GRAND ISLAND   CLOUDY    67  63  87 N3        29.89F
AURORA         CLOUDY    66  66  99 NE8       29.89S
HASTINGS       CLOUDY    69  64  84 N7        29.89F
HEBRON         CLOUDY    73  64  74 W8        29.86F
HOLDREGE       CLOUDY    66  62  85 N6        29.92S
KEARNEY        CLOUDY    66  60  81 N8        29.91S
YORK           RAIN      64  63  94 NW8       29.89F
$$

NEZ011>018-030>034-042>045-251800-
NORTHEAST NEBRASKA

CITY           SKY/WX    TMP DP  RH WIND       PRES   REMARKS
NORFOLK        RAIN      66  66 100 CALM      29.91S FOG
ALBION         HVY RAIN  65  64  96 CALM      29.90F
BLAIR          LGT RAIN  70  67  92 E12       29.88S
COLUMBUS       FOG       64  64 100 W6        29.90F VSB 3/4
FREMONT        RAIN      71  69  95 E8        29.89R
TEKAMAH        LGT RAIN  72  68  87 E10       29.88F
WAYNE          CLOUDY    67  66  96 S5        29.91F
$$

NEZ050>053-065>068-078-088>093-251800-
SOUTHEAST NEBRASKA

CITY           SKY/WX    TMP DP  RH WIND       PRES   REMARKS
LINCOLN        HVY RAIN  69  67  93 E12       29.83F FOG
OMAHA EPPLEY   RAIN      72  67  84 SE14      29.88S
BEATRICE       RAIN      68  67  97 W7        29.85F
FALLS CITY     CLOUDY    72  68  87 SE14G22   29.85S
NEBRASKA CITY  RAIN      69  69 100 E12G17    29.86F
PLATTSMOUTH    LGT RAIN  69  68  95 E16       29.87S
$$

NEZ044-045-051>053-067-251800-
OMAHA AREA

CITY           SKY/WX    TMP DP  RH WIND       PRES   REMARKS
OMAHA EPPLEY   RAIN      72  67  84 SE14      29.88S
BLAIR          LGT RAIN  70  67  92 E12       29.88S
FREMONT        RAIN      71  69  95 E8        29.89R
MILLARD        RAIN      71  69  93 SE7G16    29.87S
OFFUTT AFB     RAIN      70  68  92 E12       29.86R FOG
PLATTSMOUTH    LGT RAIN  69  68  95 E16       29.87S
WAHOO          HVY RAIN  69  68  97 E8        29.87S
$$


 

View Past Reports for Omaha, NE.

Products Courtesy of NOAA-NWS
NWS Information Parsing Script by Ken True at Saratoga Weather - Script by SE Lincoln Weather.